Location: downtown San Diego
(32.7310°N, 117.1990°W)
Time: 00:10:51
(UTC-07:00)

Meteor 1-15 Rocket - Visible Passes

Search period start: 15 August 2018 00:00
Search period end: 25 August 2018 00:00
Orbit: 840 x 907 km, 81.2° (Epoch: 13 August)

Date Brightness Start Highest point End Pass type
(mag) Time Alt. Az. Time Alt. Az. Time Alt. Az.
15 Aug 6.7 00:27:54 17° NNE 00:27:54 17° NNE 00:29:04 10° NNE visible
16 Aug 6.7 00:22:49 16° NNE 00:22:49 16° NNE 00:23:56 10° NNE visible
17 Aug 6.7 00:17:42 16° NNE 00:17:42 16° NNE 00:18:48 10° NNE visible
18 Aug 6.7 00:12:36 16° N 00:12:36 16° N 00:13:41 10° N visible
19 Aug 6.7 00:07:28 16° N 00:07:28 16° N 00:08:33 10° N visible
20 Aug 6.7 00:02:20 16° N 00:02:20 16° N 00:03:25 10° N visible
20 Aug 6.7 23:57:11 16° N 23:57:11 16° N 23:58:16 10° N visible
21 Aug 6.7 23:52:02 16° N 23:52:02 16° N 23:53:08 10° N visible
22 Aug 6.7 23:46:51 16° N 23:46:51 16° N 23:48:00 10° N visible
23 Aug 6.7 23:41:40 17° N 23:41:40 17° N 23:42:51 10° N visible
24 Aug 6.7 23:36:27 17° N 23:36:27 17° N 23:37:41 10° N visible
